OPS 4682 DEB, 38438

Orbit data source: Space-Track

OPS 4682 DEB, 38438 is space debris in LEO originally from a launch on Sat, 03 Apr 1965 UTC launched from the Air Force Western Test Range (AFWTR). Debris objects in space refer to the collection of defunct objects orbiting the Earth. Examples of debris include non-operational satellites, rocket bodies, and fragments generated from explosions, collisions, or faulty payload assembly.

Loading next visibility...
Identifier
38438, 1965-027ET
Orbit
LEO
Country
Flag of USUS
Related business
Manufacturer
Unknown
Mission
Spacecraft
Bus & Motor
Unknown
Mass
Unknown
Launch date (UTC)
1965-04-03 (61 years ago)
Launch vehicle
Unknown
Launch site
Air Force Western Test Range (AFWTR)
Object type
Payload
Rocket body
Debris
Shape & HBR
Unknown shape, 0.1 m
Radar Cross Section
Small (<0.1 m²)

Expand to show TLE details & history
Last TLE update: 8 hours ago

TLE from 8 hours ago
0 OPS 4682 DEB
1 38438U 65027ET  26119.40626198 -.00000597  00000-0 -22105-2 0  9996
2 38438  90.2428   4.5701 0033437  37.7695 322.5761 12.93135359654739
Epoch: 2026-04-29T09:45Z
TLE epoch observation values (Epoch: 2026-04-29T09:45:01.035Z)
Latitude
0.00001°
Longitude
0.94811°
Altitude
1,271.643 km
Speed
7.229 km/s
True Right ascension
00h 18m 16s
True Declination
0° 00' 00"
Sunlit
Object was in daylight at epoch
Visualization orbit readout
Latitude
Unknown
Longitude
Unknown
Altitude
Unknown
Speed
Unknown
Apparent Right ascension
Unknown
Apparent Declination
Unknown
Sunlit
N/A
Visualization observer readout
Local Sidereal Time
01:44:57
Azimuth
Unknown
Elevation
Unknown
Doppler factor
Unknown
Orbital elements
Apogee altitude
1,311.866 km
Perigee altitude
1,260.611 km
Semi-major axis
7,664.376 km
Eccentricity
0.00334
Inclination
90.2428°
RAAN
4.5701°
Arg. of periapsis
37.7695°
True anomaly
322.34248°
Mean anomaly
322.5761°
Eccentric anomaly
322.45937°
Mean motion
3.23466 °/min
Orbital period
111.29 mins
BSTAR
-0.0022105
Loading maneuver chart data...
Computing Atmospheric mass density...
Loading historical data...
Loading historical data...
Loading historical data...
Loading historical data...
Loading historical data...
Loading historical data...
Loading historical data...

Documentation

Showing up to 5 results
|